owner,sensor,date,latitude,longitude,air_temperature,qcFlag 
DISL,ioos:station:DISL:MHPA:1,2011-01-01T06:30:00Z,30.6671,-87.9365,20.36,1111122 
DISL,ioos:station:DISL:MHPA:1,2011-01-01T07:00:00Z,30.6671,-87.9365,20.33,1111122 
DISL,ioos:station:DISL:MHPA:1,2011-01-01T07:30:00Z,30.6671,-87.9365,20.08,1111122 
DISL,ioos:station:DISL:MHPA:1,2011-01-01T08:00:00Z,30.6671,-87.9365,19.84,1111122 
DISL,ioos:station:DISL:MHPA:1,2011-01-01T08:30:00Z,30.6671,-87.9365,19.9,1111122 
DISL,ioos:station:DISL:MHPA:1,2011-01-01T09:00:00Z,30.6671,-87.9365,20.18,1111122 
DISL,ioos:station:DISL:MHPA:1,2011-01-01T09:30:00Z,30.6671,-87.9365,19.81,1111122 
DISL,ioos:station:DISL:MHPA:1,2011-01-01T10:00:00Z,30.6671,-87.9365,20.05,1111122 
DISL,ioos:station:DISL:MHPA:1,2011-01-01T10:30:00Z,30.6671,-87.9365,20.08,1111122 
DISL,ioos:station:DISL:MHPA:1,2011-01-01T11:00:00Z,30.6671,-87.9365,19.06,1111122 
DISL,ioos:station:DISL:MHPA:1,2011-01-01T11:30:00Z,30.6671,-87.9365,19.68,1111122 
DISL,ioos:station:DISL:MHPA:1,2011-01-01T12:00:00Z,30.6671,-87.9365,19.91,1111122 
DISL,ioos:station:DISL:MHPA:1,2011-01-01T12:30:00Z,30.6671,-87.9365,19.98,1111122 
DISL,ioos:station:DISL:MHPA:1,2011-01-01T13:00:00Z,30.6671,-87.9365,19.69,1111122 
DISL,ioos:station:DISL:MHPA:1,2011-01-01T13:30:00Z,30.6671,-87.9365,19.4,1111122 
DISL,ioos:station:DISL:MHPA:1,2011-01-01T14:00:00Z,30.6671,-87.9365,19.33,1111122 
DISL,ioos:station:DISL:MHPA:1,2011-01-01T14:30:00Z,30.6671,-87.9365,19.19,1111122 
DISL,ioos:station:DISL:MHPA:1,2011-01-01T15:00:00Z,30.6671,-87.9365,18.81,1111122 
DISL,ioos:station:DISL:MHPA:1,2011-01-01T15:30:00Z,30.6671,-87.9365,17.69,1111122 
DISL,ioos:station:DISL:MHPA:1,2011-01-01T16:00:00Z,30.6671,-87.9365,16.46,1111122 
DISL,ioos:station:DISL:MHPA:1,2011-01-01T16:30:00Z,30.6671,-87.9365,16.7,1111122 
DISL,ioos:station:DISL:MHPA:1,2011-01-01T17:00:00Z,30.6671,-87.9365,17.62,1111122 
DISL,ioos:station:DISL:MHPA:1,2011-01-01T17:30:00Z,30.6671,-87.9365,17.68,1111122 
DISL,ioos:station:DISL:MHPA:1,2011-01-01T18:00:00Z,30.6671,-87.9365,16.56,1111122 
DISL,ioos:station:DISL:MHPA:1,2011-01-01T18:30:00Z,30.6671,-87.9365,16.53,1111122 
DISL,ioos:station:DISL:MHPA:1,2011-01-01T19:00:00Z,30.6671,-87.9365,18.0,1111122 
DISL,ioos:station:DISL:MHPA:1,2011-01-01T19:30:00Z,30.6671,-87.9365,17.56,1111122 
DISL,ioos:station:DISL:MHPA:1,2011-01-01T20:00:00Z,30.6671,-87.9365,17.19,1111122 
DISL,ioos:station:DISL:MHPA:1,2011-01-01T20:30:00Z,30.6671,-87.9365,17.18,1111122 
DISL,ioos:station:DISL:MHPA:1,2011-01-01T21:00:00Z,30.6671,-87.9365,16.65,1111122 
DISL,ioos:station:DISL:MHPA:1,2011-01-01T21:30:00Z,30.6671,-87.9365,16.23,1111122 
DISL,ioos:station:DISL:MHPA:1,2011-01-01T22:00:00Z,30.6671,-87.9365,15.55,1111122 
DISL,ioos:station:DISL:MHPA:1,2011-01-01T22:30:00Z,30.6671,-87.9365,14.73,1111122 
DISL,ioos:station:DISL:MHPA:1,2011-01-01T23:00:00Z,30.6671,-87.9365,14.0,1111122 
DISL,ioos:station:DISL:MHPA:1,2011-01-01T23:30:00Z,30.6671,-87.9365,13.82,1111122 
DISL,ioos:station:DISL:MHPA:1,2011-01-02T00:00:00Z,30.6671,-87.9365,13.62,1111122 
DISL,ioos:station:DISL:MHPA:1,2011-01-02T00:30:00Z,30.6671,-87.9365,13.47,1111122 
DISL,ioos:station:DISL:MHPA:1,2011-01-02T01:00:00Z,30.6671,-87.9365,13.26,1111122 
DISL,ioos:station:DISL:MHPA:1,2011-01-02T01:30:00Z,30.6671,-87.9365,13.17,1111122 
DISL,ioos:station:DISL:MHPA:1,2011-01-02T02:00:00Z,30.6671,-87.9365,12.92,1111122 
DISL,ioos:station:DISL:MHPA:1,2011-01-02T02:30:00Z,30.6671,-87.9365,12.46,1111122 
DISL,ioos:station:DISL:MHPA:1,2011-01-02T03:00:00Z,30.6671,-87.9365,12.23,1111122 
DISL,ioos:station:DISL:MHPA:1,2011-01-02T03:30:00Z,30.6671,-87.9365,11.9,1111122 
DISL,ioos:station:DISL:MHPA:1,2011-01-02T04:00:00Z,30.6671,-87.9365,11.52,1111122 
DISL,ioos:station:DISL:MHPA:1,2011-01-02T04:30:00Z,30.6671,-87.9365,11.13,1111122 
DISL,ioos:station:DISL:MHPA:1,2011-01-02T05:00:00Z,30.6671,-87.9365,11.04,1111122 
DISL,ioos:station:DISL:MHPA:1,2011-01-02T05:30:00Z,30.6671,-87.9365,10.8,1111122 
DISL,ioos:station:DISL:MHPA:1,2011-01-02T06:00:00Z,30.6671,-87.9365,10.25,1111122 
DISL,ioos:station:DISL:MHPA:1,2011-01-02T06:30:00Z,30.6671,-87.9365,9.85,1111122 
DISL,ioos:station:DISL:MHPA:1,2011-01-02T07:00:00Z,30.6671,-87.9365,9.52,1111122 
DISL,ioos:station:DISL:MHPA:1,2011-01-02T07:30:00Z,30.6671,-87.9365,9.15,1111122 
DISL,ioos:station:DISL:MHPA:1,2011-01-02T08:00:00Z,30.6671,-87.9365,8.94,1111122 
DISL,ioos:station:DISL:MHPA:1,2011-01-02T08:30:00Z,30.6671,-87.9365,8.85,1111122 
DISL,ioos:station:DISL:MHPA:1,2011-01-02T09:00:00Z,30.6671,-87.9365,8.39,1111122 
DISL,ioos:station:DISL:MHPA:1,2011-01-02T09:30:00Z,30.6671,-87.9365,8.1,1111122 
DISL,ioos:station:DISL:MHPA:1,2011-01-02T10:00:00Z,30.6671,-87.9365,8.1,1111122 
DISL,ioos:station:DISL:MHPA:1,2011-01-02T10:30:00Z,30.6671,-87.9365,7.89,1111122 
DISL,ioos:station:DISL:MHPA:1,2011-01-02T11:00:00Z,30.6671,-87.9365,7.42,1111122 
DISL,ioos:station:DISL:MHPA:1,2011-01-02T11:30:00Z,30.6671,-87.9365,7.09,1111122 
DISL,ioos:station:DISL:MHPA:1,2011-01-02T12:00:00Z,30.6671,-87.9365,6.448,1111122 
DISL,ioos:station:DISL:MHPA:1,2011-01-02T12:30:00Z,30.6671,-87.9365,5.937,1111122 
DISL,ioos:station:DISL:MHPA:1,2011-01-02T13:00:00Z,30.6671,-87.9365,5.486,1111122 
DISL,ioos:station:DISL:MHPA:1,2011-01-02T13:30:00Z,30.6671,-87.9365,5.398,1111122 
DISL,ioos:station:DISL:MHPA:1,2011-01-02T14:00:00Z,30.6671,-87.9365,5.484,1111122 
DISL,ioos:station:DISL:MHPA:1,2011-01-02T14:30:00Z,30.6671,-87.9365,6.081,1111122 
DISL,ioos:station:DISL:MHPA:1,2011-01-02T15:00:00Z,30.6671,-87.9365,6.562,1111122 
DISL,ioos:station:DISL:MHPA:1,2011-01-02T15:30:00Z,30.6671,-87.9365,7.19,1111122 
DISL,ioos:station:DISL:MHPA:1,2011-01-02T16:00:00Z,30.6671,-87.9365,8.76,1111122 
DISL,ioos:station:DISL:MHPA:1,2011-01-02T16:30:00Z,30.6671,-87.9365,9.41,1111122 
DISL,ioos:station:DISL:MHPA:1,2011-01-02T17:00:00Z,30.6671,-87.9365,9.79,1111122 
DISL,ioos:station:DISL:MHPA:1,2011-01-02T17:30:00Z,30.6671,-87.9365,10.53,1111122 
DISL,ioos:station:DISL:MHPA:1,2011-01-02T18:00:00Z,30.6671,-87.9365,11.25,1111122 
DISL,ioos:station:DISL:MHPA:1,2011-01-02T18:30:00Z,30.6671,-87.9365,11.66,1111122 
DISL,ioos:station:DISL:MHPA:1,2011-01-02T19:00:00Z,30.6671,-87.9365,12.1,1111122 
DISL,ioos:station:DISL:MHPA:1,2011-01-02T19:30:00Z,30.6671,-87.9365,11.97,1111122 
DISL,ioos:station:DISL:MHPA:1,2011-01-02T20:00:00Z,30.6671,-87.9365,12.27,1111122 
DISL,ioos:station:DISL:MHPA:1,2011-01-02T20:30:00Z,30.6671,-87.9365,12.3,1111122 
DISL,ioos:station:DISL:MHPA:1,2011-01-02T21:00:00Z,30.6671,-87.9365,12.14,1111122 
DISL,ioos:station:DISL:MHPA:1,2011-01-02T21:30:00Z,30.6671,-87.9365,12.29,1111122 
DISL,ioos:station:DISL:MHPA:1,2011-01-02T22:00:00Z,30.6671,-87.9365,11.82,1111122 
DISL,ioos:station:DISL:MHPA:1,2011-01-02T22:30:00Z,30.6671,-87.9365,10.44,1111122 
DISL,ioos:station:DISL:MHPA:1,2011-01-02T23:00:00Z,30.6671,-87.9365,9.28,1111122 
DISL,ioos:station:DISL:MHPA:1,2011-01-02T23:30:00Z,30.6671,-87.9365,8.67,1111122 
DISL,ioos:station:DISL:MHPA:1,2011-01-03T00:00:00Z,30.6671,-87.9365,8.04,1111122 
DISL,ioos:station:DISL:MHPA:1,2011-01-03T00:30:00Z,30.6671,-87.9365,7.2,1111122 
DISL,ioos:station:DISL:MHPA:1,2011-01-03T01:00:00Z,30.6671,-87.9365,6.67,1111122 
DISL,ioos:station:DISL:MHPA:1,2011-01-03T01:30:00Z,30.6671,-87.9365,6.111,1111122 
DISL,ioos:station:DISL:MHPA:1,2011-01-03T02:00:00Z,30.6671,-87.9365,5.705,1111122 
DISL,ioos:station:DISL:MHPA:1,2011-01-03T02:30:00Z,30.6671,-87.9365,5.599,1111122 
DISL,ioos:station:DISL:MHPA:1,2011-01-03T03:00:00Z,30.6671,-87.9365,5.235,1111122 
DISL,ioos:station:DISL:MHPA:1,2011-01-03T03:30:00Z,30.6671,-87.9365,4.887,1111122 
DISL,ioos:station:DISL:MHPA:1,2011-01-03T04:00:00Z,30.6671,-87.9365,4.667,1111122 
DISL,ioos:station:DISL:MHPA:1,2011-01-03T04:30:00Z,30.6671,-87.9365,4.294,1111122 
DISL,ioos:station:DISL:MHPA:1,2011-01-03T05:00:00Z,30.6671,-87.9365,3.426,1111122 
DISL,ioos:station:DISL:MHPA:1,2011-01-03T05:30:00Z,30.6671,-87.9365,3.454,1111122 
DISL,ioos:station:DISL:MHPA:1,2011-01-03T06:00:00Z,30.6671,-87.9365,3.121,1111122 
DISL,ioos:station:DISL:MHPA:1,2011-01-03T06:30:00Z,30.6671,-87.9365,2.749,1111122 
DISL,ioos:station:DISL:MHPA:1,2011-01-03T07:00:00Z,30.6671,-87.9365,2.568,1111122 
DISL,ioos:station:DISL:MHPA:1,2011-01-03T07:30:00Z,30.6671,-87.9365,2.35,1111122 
DISL,ioos:station:DISL:MHPA:1,2011-01-03T08:00:00Z,30.6671,-87.9365,1.913,1111122 
DISL,ioos:station:DISL:MHPA:1,2011-01-03T08:30:00Z,30.6671,-87.9365,1.476,1111122 
DISL,ioos:station:DISL:MHPA:1,2011-01-03T09:00:00Z,30.6671,-87.9365,1.096,1111122 
DISL,ioos:station:DISL:MHPA:1,2011-01-03T09:30:00Z,30.6671,-87.9365,0.688,1111122 
DISL,ioos:station:DISL:MHPA:1,2011-01-03T10:00:00Z,30.6671,-87.9365,0.47,1111122 
DISL,ioos:station:DISL:MHPA:1,2011-01-03T10:30:00Z,30.6671,-87.9365,0.556,1111122 
DISL,ioos:station:DISL:MHPA:1,2011-01-03T11:00:00Z,30.6671,-87.9365,0.072,1111122 
DISL,ioos:station:DISL:MHPA:1,2011-01-03T13:00:00Z,30.6671,-87.9365,0.47,1111122 
DISL,ioos:station:DISL:MHPA:1,2011-01-03T13:30:00Z,30.6671,-87.9365,1.817,1111122 
DISL,ioos:station:DISL:MHPA:1,2011-01-03T14:00:00Z,30.6671,-87.9365,2.445,1111122 
DISL,ioos:station:DISL:MHPA:1,2011-01-03T14:30:00Z,30.6671,-87.9365,3.434,1111122 
DISL,ioos:station:DISL:MHPA:1,2011-01-03T15:00:00Z,30.6671,-87.9365,4.58,1111122 
DISL,ioos:station:DISL:MHPA:1,2011-01-03T15:30:00Z,30.6671,-87.9365,5.991,1111122 
DISL,ioos:station:DISL:MHPA:1,2011-01-03T16:00:00Z,30.6671,-87.9365,7.05,1111122 
DISL,ioos:station:DISL:MHPA:1,2011-01-03T16:30:00Z,30.6671,-87.9365,8.15,1111122 
DISL,ioos:station:DISL:MHPA:1,2011-01-03T17:00:00Z,30.6671,-87.9365,9.37,1111122 
DISL,ioos:station:DISL:MHPA:1,2011-01-03T17:30:00Z,30.6671,-87.9365,10.61,1111122 
DISL,ioos:station:DISL:MHPA:1,2011-01-03T18:00:00Z,30.6671,-87.9365,11.86,1111122 
DISL,ioos:station:DISL:MHPA:1,2011-01-03T18:30:00Z,30.6671,-87.9365,12.75,1111122 
DISL,ioos:station:DISL:MHPA:1,2011-01-03T19:00:00Z,30.6671,-87.9365,13.51,1111122 
DISL,ioos:station:DISL:MHPA:1,2011-01-03T19:30:00Z,30.6671,-87.9365,14.05,1111122 
DISL,ioos:station:DISL:MHPA:1,2011-01-03T20:00:00Z,30.6671,-87.9365,14.58,1111122 
DISL,ioos:station:DISL:MHPA:1,2011-01-03T20:30:00Z,30.6671,-87.9365,13.24,1111122 
DISL,ioos:station:DISL:MHPA:1,2011-01-03T21:00:00Z,30.6671,-87.9365,13.48,1111122 
DISL,ioos:station:DISL:MHPA:1,2011-01-03T21:30:00Z,30.6671,-87.9365,14.0,1111122 
DISL,ioos:station:DISL:MHPA:1,2011-01-03T22:00:00Z,30.6671,-87.9365,13.19,1111122 
DISL,ioos:station:DISL:MHPA:1,2011-01-03T22:30:00Z,30.6671,-87.9365,13.46,1111122 
DISL,ioos:station:DISL:MHPA:1,2011-01-03T23:00:00Z,30.6671,-87.9365,11.77,1111122 
DISL,ioos:station:DISL:MHPA:1,2011-01-03T23:30:00Z,30.6671,-87.9365,10.71,1111122 
DISL,ioos:station:DISL:MHPA:1,2011-01-04T00:00:00Z,30.6671,-87.9365,10.61,1111122 
DISL,ioos:station:DISL:MHPA:1,2011-01-04T00:30:00Z,30.6671,-87.9365,10.16,1111122 
DISL,ioos:station:DISL:MHPA:1,2011-01-04T01:00:00Z,30.6671,-87.9365,9.83,1111122 
DISL,ioos:station:DISL:MHPA:1,2011-01-04T01:30:00Z,30.6671,-87.9365,9.53,1111122 
DISL,ioos:station:DISL:MHPA:1,2011-01-04T02:00:00Z,30.6671,-87.9365,8.74,1111122 
DISL,ioos:station:DISL:MHPA:1,2011-01-04T02:30:00Z,30.6671,-87.9365,8.26,1111122 
DISL,ioos:station:DISL:MHPA:1,2011-01-04T03:00:00Z,30.6671,-87.9365,8.23,1111122 
DISL,ioos:station:DISL:MHPA:1,2011-01-04T03:30:00Z,30.6671,-87.9365,8.0,1111122 
DISL,ioos:station:DISL:MHPA:1,2011-01-04T04:00:00Z,30.6671,-87.9365,8.18,1111122 
DISL,ioos:station:DISL:MHPA:1,2011-01-04T04:30:00Z,30.6671,-87.9365,8.31,1111122 
DISL,ioos:station:DISL:MHPA:1,2011-01-04T05:00:00Z,30.6671,-87.9365,8.14,1111122 
DISL,ioos:station:DISL:MHPA:1,2011-01-04T05:30:00Z,30.6671,-87.9365,7.86,1111122 
DISL,ioos:station:DISL:MHPA:1,2011-01-04T06:00:00Z,30.6671,-87.9365,7.78,1111122 
DISL,ioos:station:DISL:MHPA:1,2011-01-04T06:30:00Z,30.6671,-87.9365,7.24,1111122 
DISL,ioos:station:DISL:MHPA:1,2011-01-04T07:00:00Z,30.6671,-87.9365,6.861,1111122 
DISL,ioos:station:DISL:MHPA:1,2011-01-04T07:30:00Z,30.6671,-87.9365,6.948,1111122 
DISL,ioos:station:DISL:MHPA:1,2011-01-04T08:00:00Z,30.6671,-87.9365,7.57,1111122 
DISL,ioos:station:DISL:MHPA:1,2011-01-04T08:30:00Z,30.6671,-87.9365,7.38,1111122 
DISL,ioos:station:DISL:MHPA:1,2011-01-04T09:00:00Z,30.6671,-87.9365,7.89,1111122 
DISL,ioos:station:DISL:MHPA:1,2011-01-04T09:30:00Z,30.6671,-87.9365,8.15,1111122 
DISL,ioos:station:DISL:MHPA:1,2011-01-04T10:00:00Z,30.6671,-87.9365,8.38,1111122 
DISL,ioos:station:DISL:MHPA:1,2011-01-04T10:30:00Z,30.6671,-87.9365,8.97,1111122 
DISL,ioos:station:DISL:MHPA:1,2011-01-04T11:00:00Z,30.6671,-87.9365,8.87,1111122 
DISL,ioos:station:DISL:MHPA:1,2011-01-04T11:30:00Z,30.6671,-87.9365,8.41,1111122 
DISL,ioos:station:DISL:MHPA:1,2011-01-04T12:00:00Z,30.6671,-87.9365,8.65,1111122 
DISL,ioos:station:DISL:MHPA:1,2011-01-04T12:30:00Z,30.6671,-87.9365,8.88,1111122 
DISL,ioos:station:DISL:MHPA:1,2011-01-04T13:00:00Z,30.6671,-87.9365,8.51,1111122 
DISL,ioos:station:DISL:MHPA:1,2011-01-04T13:30:00Z,30.6671,-87.9365,8.79,1111122 
DISL,ioos:station:DISL:MHPA:1,2011-01-04T14:00:00Z,30.6671,-87.9365,9.07,1111122 
DISL,ioos:station:DISL:MHPA:1,2011-01-04T14:30:00Z,30.6671,-87.9365,9.57,1111122 
DISL,ioos:station:DISL:MHPA:1,2011-01-04T15:00:00Z,30.6671,-87.9365,10.09,1111122 
DISL,ioos:station:DISL:MHPA:1,2011-01-04T15:30:00Z,30.6671,-87.9365,10.98,1111122 
DISL,ioos:station:DISL:MHPA:1,2011-01-04T16:00:00Z,30.6671,-87.9365,11.23,1111122 
DISL,ioos:station:DISL:MHPA:1,2011-01-04T16:30:00Z,30.6671,-87.9365,12.21,1111122 
DISL,ioos:station:DISL:MHPA:1,2011-01-04T17:00:00Z,30.6671,-87.9365,13.3,1111122 
DISL,ioos:station:DISL:MHPA:1,2011-01-04T17:30:00Z,30.6671,-87.9365,14.48,1111122 
DISL,ioos:station:DISL:MHPA:1,2011-01-04T18:00:00Z,30.6671,-87.9365,12.48,1111122 
DISL,ioos:station:DISL:MHPA:1,2011-01-04T18:30:00Z,30.6671,-87.9365,13.37,1111122 
DISL,ioos:station:DISL:MHPA:1,2011-01-04T19:00:00Z,30.6671,-87.9365,13.5,1111122 
DISL,ioos:station:DISL:MHPA:1,2011-01-04T19:30:00Z,30.6671,-87.9365,14.34,1111122 
DISL,ioos:station:DISL:MHPA:1,2011-01-04T20:00:00Z,30.6671,-87.9365,14.86,1111122 
DISL,ioos:station:DISL:MHPA:1,2011-01-04T20:30:00Z,30.6671,-87.9365,14.63,1111122 
DISL,ioos:station:DISL:MHPA:1,2011-01-04T21:00:00Z,30.6671,-87.9365,14.1,1111122 
DISL,ioos:station:DISL:MHPA:1,2011-01-04T21:30:00Z,30.6671,-87.9365,15.15,1111122 
DISL,ioos:station:DISL:MHPA:1,2011-01-04T22:00:00Z,30.6671,-87.9365,13.12,1111122 
DISL,ioos:station:DISL:MHPA:1,2011-01-04T22:30:00Z,30.6671,-87.9365,13.46,1111122 
DISL,ioos:station:DISL:MHPA:1,2011-01-04T23:00:00Z,30.6671,-87.9365,13.13,1111122 
DISL,ioos:station:DISL:MHPA:1,2011-01-04T23:30:00Z,30.6671,-87.9365,13.06,1111122 
DISL,ioos:station:DISL:MHPA:1,2011-01-05T00:00:00Z,30.6671,-87.9365,12.99,1111122 
DISL,ioos:station:DISL:MHPA:1,2011-01-05T00:30:00Z,30.6671,-87.9365,12.8,1111122 
DISL,ioos:station:DISL:MHPA:1,2011-01-05T01:00:00Z,30.6671,-87.9365,12.39,1111122 
DISL,ioos:station:DISL:MHPA:1,2011-01-05T01:30:00Z,30.6671,-87.9365,12.71,1111122 
DISL,ioos:station:DISL:MHPA:1,2011-01-05T02:00:00Z,30.6671,-87.9365,12.73,1111122 
DISL,ioos:station:DISL:MHPA:1,2011-01-05T02:30:00Z,30.6671,-87.9365,12.49,1111122 
DISL,ioos:station:DISL:MHPA:1,2011-01-05T03:00:00Z,30.6671,-87.9365,12.34,1111122 
DISL,ioos:station:DISL:MHPA:1,2011-01-05T03:30:00Z,30.6671,-87.9365,12.03,1111122 
DISL,ioos:station:DISL:MHPA:1,2011-01-05T04:00:00Z,30.6671,-87.9365,12.1,1111122 
DISL,ioos:station:DISL:MHPA:1,2011-01-05T04:30:00Z,30.6671,-87.9365,11.46,1111122 
DISL,ioos:station:DISL:MHPA:1,2011-01-05T05:00:00Z,30.6671,-87.9365,10.84,1111122 
DISL,ioos:station:DISL:MHPA:1,2011-01-05T05:30:00Z,30.6671,-87.9365,11.48,1111122 
DISL,ioos:station:DISL:MHPA:1,2011-01-05T06:00:00Z,30.6671,-87.9365,11.9,1111122 
DISL,ioos:station:DISL:MHPA:1,2011-01-05T06:30:00Z,30.6671,-87.9365,12.27,1111122 
DISL,ioos:station:DISL:MHPA:1,2011-01-05T07:00:00Z,30.6671,-87.9365,13.03,1111122 
DISL,ioos:station:DISL:MHPA:1,2011-01-05T07:30:00Z,30.6671,-87.9365,13.24,1111122 
DISL,ioos:station:DISL:MHPA:1,2011-01-05T08:00:00Z,30.6671,-87.9365,13.47,1111122 
DISL,ioos:station:DISL:MHPA:1,2011-01-05T08:30:00Z,30.6671,-87.9365,13.62,1111122 
DISL,ioos:station:DISL:MHPA:1,2011-01-05T09:00:00Z,30.6671,-87.9365,13.72,1111122 
DISL,ioos:station:DISL:MHPA:1,2011-01-05T09:30:00Z,30.6671,-87.9365,14.15,1111122 
DISL,ioos:station:DISL:MHPA:1,2011-01-05T10:00:00Z,30.6671,-87.9365,14.23,1111122 
DISL,ioos:station:DISL:MHPA:1,2011-01-05T10:30:00Z,30.6671,-87.9365,13.3,1111122 
DISL,ioos:station:DISL:MHPA:1,2011-01-05T11:00:00Z,30.6671,-87.9365,13.44,1111122 
DISL,ioos:station:DISL:MHPA:1,2011-01-05T11:30:00Z,30.6671,-87.9365,12.42,1111122 
DISL,ioos:station:DISL:MHPA:1,2011-01-05T12:00:00Z,30.6671,-87.9365,13.43,1111122 
DISL,ioos:station:DISL:MHPA:1,2011-01-05T12:30:00Z,30.6671,-87.9365,13.69,1111122 
DISL,ioos:station:DISL:MHPA:1,2011-01-05T13:00:00Z,30.6671,-87.9365,13.04,1111122 
DISL,ioos:station:DISL:MHPA:1,2011-01-05T13:30:00Z,30.6671,-87.9365,12.93,1111122 
DISL,ioos:station:DISL:MHPA:1,2011-01-05T14:00:00Z,30.6671,-87.9365,13.55,1111122 
DISL,ioos:station:DISL:MHPA:1,2011-01-05T14:30:00Z,30.6671,-87.9365,13.97,1111122 
DISL,ioos:station:DISL:MHPA:1,2011-01-05T15:00:00Z,30.6671,-87.9365,14.08,1111122 
DISL,ioos:station:DISL:MHPA:1,2011-01-05T15:30:00Z,30.6671,-87.9365,14.25,1111122 
DISL,ioos:station:DISL:MHPA:1,2011-01-05T16:00:00Z,30.6671,-87.9365,14.9,1111122 
DISL,ioos:station:DISL:MHPA:1,2011-01-05T16:30:00Z,30.6671,-87.9365,15.5,1111122 
DISL,ioos:station:DISL:MHPA:1,2011-01-05T17:00:00Z,30.6671,-87.9365,15.58,1111122 
DISL,ioos:station:DISL:MHPA:1,2011-01-05T17:30:00Z,30.6671,-87.9365,15.5,1111122 
DISL,ioos:station:DISL:MHPA:1,2011-01-05T18:00:00Z,30.6671,-87.9365,14.92,1111122 
DISL,ioos:station:DISL:MHPA:1,2011-01-05T18:30:00Z,30.6671,-87.9365,15.46,1111122 
DISL,ioos:station:DISL:MHPA:1,2011-01-05T19:00:00Z,30.6671,-87.9365,15.22,1111122 
DISL,ioos:station:DISL:MHPA:1,2011-01-05T19:30:00Z,30.6671,-87.9365,15.07,1111122 
DISL,ioos:station:DISL:MHPA:1,2011-01-05T20:00:00Z,30.6671,-87.9365,15.68,1111122 
DISL,ioos:station:DISL:MHPA:1,2011-01-05T20:30:00Z,30.6671,-87.9365,15.58,1111122 
DISL,ioos:station:DISL:MHPA:1,2011-01-05T21:00:00Z,30.6671,-87.9365,15.21,1111122 
DISL,ioos:station:DISL:MHPA:1,2011-01-05T21:30:00Z,30.6671,-87.9365,15.88,1111122 
DISL,ioos:station:DISL:MHPA:1,2011-01-05T22:00:00Z,30.6671,-87.9365,15.9,1111122 
DISL,ioos:station:DISL:MHPA:1,2011-01-05T22:30:00Z,30.6671,-87.9365,15.22,1111122 
DISL,ioos:station:DISL:MHPA:1,2011-01-05T23:00:00Z,30.6671,-87.9365,14.82,1111122 
DISL,ioos:station:DISL:MHPA:1,2011-01-05T23:30:00Z,30.6671,-87.9365,15.34,1111122 
DISL,ioos:station:DISL:MHPA:1,2011-01-06T00:00:00Z,30.6671,-87.9365,14.1,1111122 
DISL,ioos:station:DISL:MHPA:1,2011-01-06T00:30:00Z,30.6671,-87.9365,16.16,1111122 
DISL,ioos:station:DISL:MHPA:1,2011-01-06T01:00:00Z,30.6671,-87.9365,16.06,1111122 
DISL,ioos:station:DISL:MHPA:1,2011-01-06T01:30:00Z,30.6671,-87.9365,15.66,1111122 
DISL,ioos:station:DISL:MHPA:1,2011-01-06T02:00:00Z,30.6671,-87.9365,15.96,1111122 
DISL,ioos:station:DISL:MHPA:1,2011-01-06T02:30:00Z,30.6671,-87.9365,15.05,1111122 
DISL,ioos:station:DISL:MHPA:1,2011-01-06T03:00:00Z,30.6671,-87.9365,14.13,1111122 
DISL,ioos:station:DISL:MHPA:1,2011-01-06T03:30:00Z,30.6671,-87.9365,13.95,1111122 
DISL,ioos:station:DISL:MHPA:1,2011-01-06T04:00:00Z,30.6671,-87.9365,13.75,1111122 
DISL,ioos:station:DISL:MHPA:1,2011-01-06T04:30:00Z,30.6671,-87.9365,13.23,1111122 
DISL,ioos:station:DISL:MHPA:1,2011-01-06T05:00:00Z,30.6671,-87.9365,12.85,1111122 
DISL,ioos:station:DISL:MHPA:1,2011-01-06T05:30:00Z,30.6671,-87.9365,12.69,1111122 
DISL,ioos:station:DISL:MHPA:1,2011-01-06T06:00:00Z,30.6671,-87.9365,12.29,1111122 
DISL,ioos:station:DISL:MHPA:1,2011-01-06T06:30:00Z,30.6671,-87.9365,12.01,1111122 
DISL,ioos:station:DISL:MHPA:1,2011-01-06T07:00:00Z,30.6671,-87.9365,11.42,1111122 
DISL,ioos:station:DISL:MHPA:1,2011-01-06T07:30:00Z,30.6671,-87.9365,10.96,1111122 
DISL,ioos:station:DISL:MHPA:1,2011-01-06T08:00:00Z,30.6671,-87.9365,10.37,1111122 
DISL,ioos:station:DISL:MHPA:1,2011-01-06T08:30:00Z,30.6671,-87.9365,9.83,1111122 
DISL,ioos:station:DISL:MHPA:1,2011-01-06T09:00:00Z,30.6671,-87.9365,9.28,1111122 
DISL,ioos:station:DISL:MHPA:1,2011-01-06T09:30:00Z,30.6671,-87.9365,8.73,1111122 
DISL,ioos:station:DISL:MHPA:1,2011-01-06T10:00:00Z,30.6671,-87.9365,8.28,1111122 
DISL,ioos:station:DISL:MHPA:1,2011-01-06T10:30:00Z,30.6671,-87.9365,7.78,1111122 
DISL,ioos:station:DISL:MHPA:1,2011-01-06T11:00:00Z,30.6671,-87.9365,7.54,1111122 
DISL,ioos:station:DISL:MHPA:1,2011-01-06T11:30:00Z,30.6671,-87.9365,7.33,1111122 
DISL,ioos:station:DISL:MHPA:1,2011-01-06T12:00:00Z,30.6671,-87.9365,6.968,1111122 
DISL,ioos:station:DISL:MHPA:1,2011-01-06T12:30:00Z,30.6671,-87.9365,6.764,1111122 
DISL,ioos:station:DISL:MHPA:1,2011-01-06T13:00:00Z,30.6671,-87.9365,6.66,1111122 
DISL,ioos:station:DISL:MHPA:1,2011-01-06T13:30:00Z,30.6671,-87.9365,7.27,1111122 
DISL,ioos:station:DISL:MHPA:1,2011-01-06T14:00:00Z,30.6671,-87.9365,8.01,1111122 
DISL,ioos:station:DISL:MHPA:1,2011-01-06T14:30:00Z,30.6671,-87.9365,8.72,1111122 
DISL,ioos:station:DISL:MHPA:1,2011-01-06T15:00:00Z,30.6671,-87.9365,9.11,1111122 
DISL,ioos:station:DISL:MHPA:1,2011-01-06T15:30:00Z,30.6671,-87.9365,9.73,1111122 
DISL,ioos:station:DISL:MHPA:1,2011-01-06T16:00:00Z,30.6671,-87.9365,10.64,1111122 
DISL,ioos:station:DISL:MHPA:1,2011-01-06T16:30:00Z,30.6671,-87.9365,11.06,1111122 
DISL,ioos:station:DISL:MHPA:1,2011-01-06T17:00:00Z,30.6671,-87.9365,11.47,1111122 
DISL,ioos:station:DISL:MHPA:1,2011-01-06T17:30:00Z,30.6671,-87.9365,11.68,1111122 
DISL,ioos:station:DISL:MHPA:1,2011-01-06T18:00:00Z,30.6671,-87.9365,12.53,1111122 
DISL,ioos:station:DISL:MHPA:1,2011-01-06T18:30:00Z,30.6671,-87.9365,13.33,1111122 
DISL,ioos:station:DISL:MHPA:1,2011-01-06T19:00:00Z,30.6671,-87.9365,14.0,1111122 
DISL,ioos:station:DISL:MHPA:1,2011-01-06T19:30:00Z,30.6671,-87.9365,13.88,1111122 
DISL,ioos:station:DISL:MHPA:1,2011-01-06T20:00:00Z,30.6671,-87.9365,14.46,1111122 
DISL,ioos:station:DISL:MHPA:1,2011-01-06T20:30:00Z,30.6671,-87.9365,14.56,1111122 
DISL,ioos:station:DISL:MHPA:1,2011-01-06T21:00:00Z,30.6671,-87.9365,14.69,1111122 
DISL,ioos:station:DISL:MHPA:1,2011-01-06T21:30:00Z,30.6671,-87.9365,14.53,1111122 
DISL,ioos:station:DISL:MHPA:1,2011-01-06T22:00:00Z,30.6671,-87.9365,14.23,1111122 
DISL,ioos:station:DISL:MHPA:1,2011-01-06T22:30:00Z,30.6671,-87.9365,13.88,1111122 
DISL,ioos:station:DISL:MHPA:1,2011-01-06T23:00:00Z,30.6671,-87.9365,13.37,1111122 
DISL,ioos:station:DISL:MHPA:1,2011-01-06T23:30:00Z,30.6671,-87.9365,12.23,1111122 
DISL,ioos:station:DISL:MHPA:1,2011-01-07T00:00:00Z,30.6671,-87.9365,11.9,1111122 
DISL,ioos:station:DISL:MHPA:1,2011-01-07T00:30:00Z,30.6671,-87.9365,11.82,1111122 
DISL,ioos:station:DISL:MHPA:1,2011-01-07T01:00:00Z,30.6671,-87.9365,11.16,1111122 
DISL,ioos:station:DISL:MHPA:1,2011-01-07T01:30:00Z,30.6671,-87.9365,10.78,1111122 
DISL,ioos:station:DISL:MHPA:1,2011-01-07T02:00:00Z,30.6671,-87.9365,10.74,1111122 
DISL,ioos:station:DISL:MHPA:1,2011-01-07T02:30:00Z,30.6671,-87.9365,10.34,1111122 
DISL,ioos:station:DISL:MHPA:1,2011-01-07T03:00:00Z,30.6671,-87.9365,9.68,1111122 
DISL,ioos:station:DISL:MHPA:1,2011-01-07T03:30:00Z,30.6671,-87.9365,8.76,1111122 
DISL,ioos:station:DISL:MHPA:1,2011-01-07T04:00:00Z,30.6671,-87.9365,9.07,1111122 
DISL,ioos:station:DISL:MHPA:1,2011-01-07T04:30:00Z,30.6671,-87.9365,9.23,1111122 
DISL,ioos:station:DISL:MHPA:1,2011-01-07T05:00:00Z,30.6671,-87.9365,9.05,1111122 
DISL,ioos:station:DISL:MHPA:1,2011-01-07T05:30:00Z,30.6671,-87.9365,8.2,1111122 
DISL,ioos:station:DISL:MHPA:1,2011-01-07T06:00:00Z,30.6671,-87.9365,7.29,1111122 
DISL,ioos:station:DISL:MHPA:1,2011-01-07T06:30:00Z,30.6671,-87.9365,7.11,1111122 
DISL,ioos:station:DISL:MHPA:1,2011-01-07T07:00:00Z,30.6671,-87.9365,6.985,1111122 
DISL,ioos:station:DISL:MHPA:1,2011-01-07T07:30:00Z,30.6671,-87.9365,6.32,1111122 
DISL,ioos:station:DISL:MHPA:1,2011-01-07T08:00:00Z,30.6671,-87.9365,5.961,1111122 